512  
ASUS44 KSJT 280010  
RWRSJT  
WEST CENTRAL TEXAS REGIONAL WEATHER ROUNDUP  
NATIONAL WEATHER SERVICE SAN ANGELO TX  
700 PM CDT TUE SEP 27 2022  
 
NOTE: "FAIR" INDICATES FEW OR NO CLOUDS BELOW 12,000 FEET WITH NO  
SIGNIFICANT WEATHER AND/OR S TO VISIBILITY
.  
 
TXZ049-054-064>066-071>073-076>078-098-099-113-114-127-128-139-140-  
154-155-168>170-280100-   
..LOCATIONS ACROSS WEST CENTRAL TEXAS
 
 
 
CITY SKY/WX TMP DP RH WIND PRES REMARKS
 
SAN ANGELO CLEAR 87 37 17 SE8 30.12S  
ABILENE CLEAR 87 42 20 SE6 30.13S  
DYESS AFB CLEAR 87 38 17 SE7 30.10S  
JUNCTION CLEAR 85 43 22 NE8 30.14S  
SWEETWATER CLEAR 88 35 15 S5 30.17S  
BROWNWOOD NOT AVBL  
COLEMAN CLEAR 87 40 19 SE5 30.14R  
SAN SABA CLEAR 85 42 21 E8 30.13R  
SONORA CLEAR 84 37 18 E9 30.19S  
OZONA FAIR 86 32 14 SE10 30.17S  
BRADY CLEAR 84 39 20 SE6G12 30.14R  

 
 
TXZ001-004-007-008-010-012-014-016-OKZ002-280100-  
TEXAS PANHANDLE/OKLAHOMA PANHANDLE  
 
CITY SKY/WX TMP DP RH WIND PRES REMARKS
 
AMARILLO CLEAR 84 42 22 NE9 30.15S  
BORGER CLEAR 89 37 16 N8 30.14S  
CANADIAN CLEAR 87 41 19 NE9 30.10S  
DALHART CLEAR 84 37 18 E8 30.20S  
DUMAS CLEAR 83 37 19 E9 30.19S  
GUYMON NOT AVBL  
HEREFORD CLEAR 86 42 21 S3 30.17S  
PAMPA CLEAR 85 41 21 NE10 30.16S  
PERRYTON CLEAR 83 36 18 NE9 30.14S  

 
 
TXZ035-026-045-048-280100-  
SOUTHERN PANHANDLE/SOUTH PLAINS/ROLLING PLAINS  
 
CITY SKY/WX TMP DP RH WIND PRES REMARKS
 
LUBBOCK CLEAR 85 45 24 S9 30.16S  
SNYDER CLEAR 85 40 20 SE3 30.16S  
CHILDRESS CLEAR 89 46 22 S13 30.07S  
SEMINOLE CLEAR 84 44 24 SE7 30.22S  

 
 
TXZ060>062-280100-  
PERMIAN BASIN  
 
CITY SKY/WX TMP DP RH WIND PRES REMARKS
 
MIDLAND CLEAR 83 40 21 SE7 30.16S  
ODESSA CLEAR 85 44 23 SE9 30.17S  
WINK CLEAR 85 43 22 SE12 30.13F  

 
 
TXZ075-082-271-274-277-419-280100-  
FAR WEST/SOUTHWEST MOUNTAINS/TRANS PECOS  
 
CITY SKY/WX TMP DP RH WIND PRES REMARKS
 
ALPINE CLEAR 76 44 31 SE13 30.29S  
DRYDEN N/A 80 48 32 SE8 30.16S  
EL PASO MOSUNNY 85 45 24 SE7 30.14S  
FORT STOCKTON CLEAR 83 43 24 SE7 30.16S  
GUADALUPE PASS CLEAR 73 44 35 E16 30.29F  
MARFA CLEAR 75 44 33 E15 30.26F  
PECOS CLEAR 86 43 22 SE12 30.13S  

 
 
TXZ118-119-280100-  
DALLAS/FORT WORTH METROPLEX  
 
CITY SKY/WX TMP DP RH WIND PRES REMARKS
 
DFW AIRPORT CLEAR 83 42 23 S7 30.09R  
FTW MEACHAM CLEAR 83 45 26 SE7 30.10R  
DAL-EXECUTIVE CLEAR 82 46 28 SE7 30.11R  
GRAND PRAIRIE CLEAR 84 41 21 SE9 30.12R  
ADDISON CLEAR 84 41 21 SE8 30.11S  
MESQUITE CLEAR 81 46 30 CALM 30.11R  
LANCASTER CLEAR 83 44 24 SE3 30.12R  

 
 
TXZ092-093-103-131-134-280100-  
NORTH CENTRAL TEXAS  
 
CITY SKY/WX TMP DP RH WIND PRES REMARKS
 
SHRMAN/DENISON CLEAR 84 39 20 SE8 30.10F  
GAINESVILLE CLEAR 82 38 20 S6 30.11S  
BRIDGEPORT CLEAR 84 41 22 SE6 30.11S  
DENTON CLEAR 85 41 21 S9 30.10S  
WAXAHACHIE CLEAR 82 50 32 CALM 30.13R  
GRANBURY CLEAR 84 43 23 SE7 30.12R  

 
 
TXZ085-086-115-141-280100-  
WESTERN NORTH TEXAS  
 
CITY SKY/WX TMP DP RH WIND PRES REMARKS
 
WICHITA FALLS CLEAR 89 41 18 S12 30.05S  
VERNON NOT AVBL  
BRECKENRIDGE CLEAR 90 41 18 S7 30.10R  
COMANCHE CLEAR 89 42 19 E5 30.13R  

 
 
TXZ145-158-159-173-191-192-194-205-207-220-223-280100-  
CENTRAL AND SOUTH CENTRAL TEXAS  
 
CITY SKY/WX TMP DP RH WIND PRES REMARKS
 
AUSTIN/BERGSTM CLEAR 85 44 23 E8 30.08S  
WACO CLEAR 86 41 20 E6 30.10R  
HILLSBORO CLEAR 85 43 23 E7 30.11S  
TEMPLE CLEAR 85 40 20 E10 30.11R  
KILLEEN-GRAY CLEAR 86 37 17 E8 30.08R  
FORT HOOD CLEAR 86 37 18 E6 30.11R  
GEORGETOWN CLEAR 86 41 20 E7 30.12R  
LAGO VISTA N/A N/A N/A N/A E5 30.13R  
SAN MARCOS CLEAR N/A N/A N/A E8 N/A  
NEW BRAUNFELS CLEAR 87 37 17 E9 30.07S  
RANDOLPH AFB CLEAR 86 31 14 CALM 30.06R  
SAN ANTONIO CLEAR 85 34 16 E7 30.09R  
STINSON CLEAR 88 36 15 E8 30.05S  
PLEASANTON NOT AVBL  
LA GRANGE NOT AVBL  
GIDDINGS CLEAR 86 42 21 NE5 30.09S  

 
 
TXZ095-096-136-137-148-152-280100-  
EAST TEXAS  
 
CITY SKY/WX TMP DP RH WIND PRES REMARKS
 
PARIS CLEAR 79 44 28 SE8 30.12R  
CLARKSVILLE NOT AVBL  
TYLER CLEAR 82 45 27 NE6 30.12R  
LONGVIEW CLEAR 80 43 26 E7 30.11R  
PALESTINE CLEAR 82 37 20 NE7 30.09R  
NACOGDOCHES CLEAR 80 42 25 VRB3 30.11S  

 
 
TXZ171-183-184-186-188-203-204-280100-  
TEXAS HILL COUNTRY AND EDWARDS PLATEAU  
 
CITY SKY/WX TMP DP RH WIND PRES REMARKS
 
LLANO CLEAR 86 39 19 E5 30.11R  
HORSESHOE BAY FAIR 85 39 19 E5 30.12R  
KERRVILLE CLEAR 84 37 18 E8 30.13R  
FREDERICKSBRG CLEAR 82 37 19 E6 30.14R  
ROCKSPRINGS CLEAR 81 37 21 E5 30.20S  
HONDO CLEAR 87 35 15 SE9 30.09R  
UVALDE CLEAR 85 34 16 SE7 30.11R  
DEL RIO CLEAR 85 45 24 S6 30.09R  

 
 
TXZ163-177-195>197-199-213-226-237-280100-  
SOUTHEAST TEXAS  
 
CITY SKY/WX TMP DP RH WIND PRES REMARKS
 
COLLEGE STN CLEAR 86 41 20 NE7 30.07S  
CALDWELL CLEAR 85 43 23 NE3 30.08S  
CROCKETT CLEAR 82 37 20 N8 30.09R  
BRENHAM CLEAR 87 41 20 E5 30.07  
HUNTSVILLE CLEAR 86 46 24 CALM 30.08R  
CONROE CLEAR 81 50 33 N3 30.08R  
HOUSTON BUSH CLEAR 85 47 26 NE9 30.05S  
HOUSTON HOBBY CLEAR 85 44 23 E8 30.05R  
PERLAND CLEAR 84 49 29 E5 30.07R  
WHARTON CLEAR 83 41 23 NE3 30.06S  

 
 
TXZ215-216-236-237-438-280100-  
THE UPPER TEXAS COAST  
 
CITY SKY/WX TMP DP RH WIND PRES REMARKS
 
ORANGE CLEAR 81 47 30 CALM 30.08R  
PORT ARTHUR CLEAR 81 48 31 NE6 30.05R  
GALVESTON CLEAR 81 54 39 E7 30.06S  
ANGLETON CLEAR 80 54 40 SE5 30.06R  
BAY CITY CLEAR 82 55 38 CALM 30.06S  

 
 
TXZ229-232-234-239-242-243-245-247-249-250-  
253-255-257-343-347-443-280100-  
TEXAS COASTAL BEND, RIO GRANDE PLAINS DEEP SOUTH TEXAS  
 
CITY SKY/WX TMP DP RH WIND PRES REMARKS
 
VICTORIA CLEAR 82 55 39 S7 30.06S  
BEEVILLE FAIR 81 46 28 E5 30.06S  
ROCKPORT CLEAR 82 54 37 E10 30.06R  
PORT ARANSAS CLEAR N/A N/A N/A E10 30.07S  
PORT LAVACA NOT AVBL  
CORPUS CHRISTI PTCLDY 85 59 41 E14 30.05S  
KINGSVILLE NAS PTCLDY 83 62 49 E13 30.04S  
COTULLA PTCLDY 88 40 18 E7 30.07R  
LAREDO CLEAR 87 41 19 N8 30.05S  
BROWNSVILLE MOCLDY 83 70 64 NE8 30.02R  
PORT ISABEL MOCLDY 83 68 60 NE13 30.02R  
HEBBRONVILLE CLEAR 84 50 30 E5 30.07R  
MCALLEN PTCLDY 82 70 66 E14 30.03R  
WESLACO NOT AVBL  
 
CLICK HERE TO GO TO PREVIOUS BULLETINS.

The Nexlab TX Page Main Text Page